RH
18 17 15 14 15 17 17 14 13 11 10 12 12 14 16 18 22 23 19 20 21 19 23 25 25 25 24 24 23 20 20 19 16 15 16 19 21 23 24 24 26 29 33 35 33 36 42 44 51
20 18 18 18 16 18 13 15 14 12 10 12 13 15 17 17 21 20 21 22 22 21 22 25 27 28 28 24 22 21 22 21 19 16 17 18 20 23 24 25 25 29 33 35 36 39 42 48 54
21 19 19 21 23 19 15 14 13 11 12 12 15 15 15 17 22 19 20 20 20 20 21 24 27 28 27 25 23 24 25 24 21 18 18 19 21 23 25 26 27 32 35 37 39 42 43 49 58
23 21 22 24 24 22 19 17 15 13 13 14 16 17 16 15 20 23 21 20 21 21 22 23 25 27 26 25 24 23 23 22 21 21 21 21 23 24 26 27 29 32 36 39 41 42 45 52 58
23 24 27 29 27 23 23 19 17 17 16 16 18 17 16 15 16 22 23 20 20 20 22 24 23 23 25 23 22 22 23 23 23 23 23 23 24 25 27 28 30 33 35 41 44 46 49 53 55
24 27 32 31 26 24 24 22 20 18 17 17 20 19 17 18 21 22 25 25 25 23 22 21 22 23 22 21 20 20 22 23 23 25 25 24 25 26 27 28 29 31 35 39 47 49 53 53 54
25 29 32 31 29 26 26 25 25 24 21 20 21 20 19 21 28 27 28 30 29 24 24 25 23 21 19 18 18 19 20 21 23 25 25 25 26 27 26 28 28 31 34 37 44 50 52 53 53
25 28 32 32 30 28 28 28 29 27 25 24 23 22 22 23 28 35 37 31 27 25 25 25 22 22 20 20 19 18 19 20 23 25 25 25 26 27 27 27 28 30 32 37 43 48 50 54 57
27 31 36 30 30 28 28 29 30 30 29 26 26 25 24 23 28 42 42 37 30 28 28 28 25 24 24 23 21 20 21 22 22 24 24 26 26 27 27 26 28 30 33 37 44 50 55 57 61
30 37 31 28 27 27 28 29 29 29 29 27 25 27 25 26 25 42 48 44 36 34 33 32 30 28 29 28 25 23 23 23 24 24 24 25 26 27 27 27 29 31 34 38 44 55 57 67 68
27 31 29 29 29 28 26 27 28 28 29 28 27 28 27 27 27 31 47 53 49 44 42 41 41 37 34 31 30 28 26 25 26 26 26 26 27 28 28 28 29 31 33 37 44 48 54 60 66
29 27 26 26 27 27 25 24 26 26 27 28 28 28 29 29 28 28 37 57 67 53 52 50 43 43 38 34 34 31 30 28 27 28 27 27 28 28 27 28 28 30 32 37 42 47 52 60 69
29 28 27 26 27 28 27 27 25 25 26 27 29 30 30 31 31 30 30 40 53 67 72 53 51 47 43 40 39 35 33 32 30 30 29 28 30 30 28 28 29 31 33 36 42 46 52 59 73
34 33 32 31 29 28 28 28 29 27 27 27 28 29 31 32 33 32 32 33 34 34 40 72 63 56 50 46 43 42 38 36 31 31 30 30 31 32 32 28 30 32 33 35 42 47 52 65 79
37 38 36 33 31 30 30 29 28 27 27 27 27 28 29 31 32 33 32 31 31 30 31 33 40 45 53 50 48 48 42 40 41 37 38 33 34 35 34 29 32 35 35 36 42 47 54 68 79
38 39 40 36 34 34 33 33 30 30 28 26 26 26 27 28 28 30 32 32 32 31 32 33 34 33 39 48 52 51 45 41 41 47 44 37 36 38 38 32 34 37 38 37 42 45 51 63 74
42 44 42 39 36 36 34 32 30 28 28 28 27 27 27 27 29 30 31 32 34 35 37 36 35 32 33 35 44 54 57 52 47 57 49 38 37 41 40 35 37 39 41 37 39 42 47 54 70
45 46 44 42 35 32 29 28 28 29 30 29 29 28 27 26 27 29 28 29 29 31 33 36 35 33 36 36 38 52 57 52 46 48 62 48 39 44 42 39 41 42 44 40 37 40 43 48 60
39 39 39 35 31 32 30 29 29 29 29 28 26 24 22 22 22 23 22 24 26 27 28 30 30 31 34 35 39 43 52 47 44 45 62 63 45 45 45 43 45 43 46 44 39 40 42 49 56
39 37 38 37 36 36 32 27 27 26 23 23 21 19 19 19 20 20 20 21 24 24 25 27 28 30 30 32 33 33 38 43 39 43 56 71 61 47 50 48 47 45 49 47 42 39 39 46 51
37 38 37 37 33 31 29 24 21 20 19 20 21 25 30 32 34 32 29 28 26 26 27 28 29 29 32 34 35 36 37 44 44 44 52 61 65 61 61 55 50 49 50 50 48 39 39 44 46
39 34 35 36 37 39 32 35 23 20 20 20 31 36 38 39 41 42 42 39 37 35 31 28 31 31 32 37 34 35 35 34 39 40 44 49 59 75 73 63 53 53 50 51 51 38 39 46 46
33 30 30 32 37 37 38 40 23 20 21 36 39 39 39 41 42 45 44 45 44 44 42 40 36 35 36 40 37 36 35 33 35 32 41 52 60 77 74 68 56 54 50 53 55 40 38 45 50
30 30 31 33 37 44 36 41 24 23 36 38 41 43 44 43 45 48 49 50 52 50 54 52 49 47 42 48 39 34 33 35 38 32 37 50 64 73 73 63 55 52 52 55 58 42 40 46 56
38 42 47 48 54 43 38 44 27 35 38 43 45 48 49 49 47 49 55 60 60 63 70 67 62 56 49 45 38 30 33 39 45 39 39 51 63 70 67 55 55 52 53 56 57 42 44 50 55
39 40 51 57 57 50 39 41 35 42 42 44 48 55 61 62 60 63 67 73 76 80 85 76 70 70 59 50 46 44 45 43 46 40 43 58 69 69 63 56 58 54 58 60 57 42 49 51 54
34 46 46 58 53 60 45 40 46 50 53 55 58 62 65 65 71 78 82 87 85 87 87 81 77 75 66 67 60 51 54 53 53 47 56 69 80 72 64 63 57 58 59 61 49 48 52 52 55
28 28 43 58 66 64 43 49 53 64 66 64 66 66 69 75 86 91 91 95 94 90 87 85 80 77 75 73 71 64 56 65 63 56 58 65 73 77 67 67 59 56 59 60 50 49 52 53 56
23 24 29 50 57 68 65 65 74 75 75 73 73 75 79 93 93 91 93 96 95 91 88 84 83 86 86 79 73 70 69 67 63 64 67 72 78 80 76 72 63 59 57 58 50 50 53 55 58
28 41 45 53 51 62 68 55 59 70 69 78 84 89 95 95 92 92 91 92 90 86 79 82 87 88 82 84 78 79 80 72 76 80 72 81 80 83 82 75 66 62 63 57 51 51 53 54 58